Weather Roundup
Issued by NWS

Home | Current Version | Previous Version | Graphics & Text | Print | Product List | Glossary Off
Versions: 1 2 3 4 5 6 7 8 9 10 11 12 13 14 15 16 17 18 19 20 21 22 23 24 25 26 27 28 29 30 31 32 33 34 35 36 37 38 39 40 41 42 43 44 45 46 47 48 49 50

000
NZUS93 KARX 231159
HRRWXR

CURRENT HOURLY OBSERVATIONS ACROSS
MUCH OF THE UPPER MISSISSIPPI VALLEY
NATIONAL WEATHER SERVICE LA CROSSE WI
700 AM CDT THU OCT 23 2014


...SOUTHEAST MINNESOTA...


CITY           SKY/WX    TMP DP  RH WIND       PRES   REMARKS
ROCHESTER      RAIN      48  46  93 S9        30.03F FOG
ROCHESTER/MAYO CLOUDY    48  46  93 SE6       30.02F
WINONA         LGT RAIN  48  46  93 SE6       30.05F
AUSTIN         RAIN      48  46  93 S7        30.01F
ALBERT LEA     DRIZZLE   50  48  93 S8        30.00F
DODGE CENTER   LGT RAIN  48  46  93 S13       30.01F
PRESTON        CLOUDY    47  44  90 S10       30.04F
OWATONNA       CLOUDY    50  48  93 S7        30.00F
FARIBAULT      CLOUDY    50  48  93 S3        30.01S FOG
$$

...ELSEWHERE IN MINNESOTA...


CITY           SKY/WX    TMP DP  RH WIND       PRES   REMARKS
MINNEAPOLIS    CLOUDY    52  50  93 S6        29.99S
INTNL FALLS    CLOUDY    49  47  93 SW7       29.88S
DULUTH         CLOUDY    48  45  89 S9        29.95F
RED WING       NOT AVBL
REDWOOD FALLS  FOG       45  44  97 SW6       29.98S VSB 1/4
MANKATO        CLOUDY    52  46  82 S7        29.99S
WORTHINGTON    CLOUDY    50  48  93 W5        30.02R VSB 1/2
FAIRMONT       CLOUDY    54  50  87 SW5       30.00S
$$

...SOUTHWEST WISCONSIN...


CITY           SKY/WX    TMP DP  RH WIND       PRES   REMARKS
LA CROSSE      LGT RAIN  49  45  86 SE9       30.06F
PRAIRIE DU CHI LGT RAIN  51  38  62 SE6       30.10F
BOSCOBEL       CLOUDY    49  37  63 VRB3      30.12F
LONE ROCK      NOT AVBL
PLATTEVILLE    CLOUDY    43  38  81 SE9       30.14F
FORT MC COY    CLOUDY    51  37  58 SW3       30.10S
VIROQUA        CLOUDY    48  38  69 S7        30.09S
WIS DELLS      CLOUDY    43  34  70 S7        30.13F
$$

...ELSEWHERE IN WISCONSIN...


CITY           SKY/WX    TMP DP  RH WIND       PRES   REMARKS
MILWAUKEE      PTCLDY    38  35  89 S5        30.20F WCI  34
MADISON        MOCLDY    40  35  83 S8        30.17F WCI  34
GREEN BAY      CLEAR     37  35  92 S6        30.17F WCI  32
EAU CLAIRE     NOT AVBL
BLACK RVR FLS  LGT RAIN  47  47 100 CALM      30.07F
MEDFORD        CLOUDY    41  39  93 S7        30.07F
WAUSAU         LGT RAIN  42  39  89 SE7       30.09F
WIS RAPIDS     CLOUDY    41  38  89 SE8       30.12F
MARSHFIELD     CLOUDY    43  39  86 S8        30.08F
RICE LAKE      CLOUDY    47  44  88 SE7       30.03F
$$

...NORTHEAST IOWA...


CITY           SKY/WX    TMP DP  RH WIND       PRES   REMARKS
DECORAH        LGT RAIN  46  45  93 S8        30.05F
MASON CITY     LGT RAIN  48  48 100 SE7       30.03F
CHARLES CITY   LGT RAIN  48  46  93 S7G14     30.05S
OELWEIN        CLOUDY    48  45  87 SE13      30.07F
$$

...ELSEWHERE IN IOWA...


CITY           SKY/WX    TMP DP  RH WIND       PRES   REMARKS
DES MOINES     CLOUDY    54  50  86 S5        30.04S
IOWA CITY      CLOUDY    46  41  82 SE7       30.11F
FORT DODGE     CLOUDY    54  50  87 SW3       30.02S
$$

...NORTHERN ILLINOIS...


CITY           SKY/WX    TMP DP  RH WIND       PRES   REMARKS
CHICAGO-OHARE  PTCLDY    36  35  96 S8        30.21S WCI  30
CHICAGO-MIDWAY PTCLDY    42  38  85 S7        30.22S
MOLINE         PTCLDY    40  36  86 E7        30.16S
ROCKFORD       MOCLDY    38  33  82 S3        30.22R
PEORIA         CLEAR     42  36  79 S3        30.20S
$$

NOTE: "FAIR" INDICATES FEW OR NO CLOUDS BELOW 12,000 FEET WITH NO
SIGNIFICANT WEATHER AND/OR OBSTRUCTIONS TO VISIBILITY. WIND
SPEEDS ARE IN MILES-PER-HOUR.



USA.gov is the U.S. government's official web portal to all federal, state and local government web resources and services.